Regional Weather Roundup
Issued by NWS

Home | Current Version | Previous Version | Graphics & Text | Print | Product List | Glossary On
Versions: 1 2 3 4 5 6 7 8 9 10 11 12 13 14 15 16 17 18 19 20 21 22 23 24 25 26 27 28 29 30 31 32 33 34 35 36 37 38 39 40 41 42 43 44 45 46 47 48 49 50
323
ASUS45 KCYS 310410
RWRWY

WYOMING REGIONAL WEATHER ROUNDUP
NATIONAL WEATHER SERVICE CHEYENNE WY
1000 PM MDT MON MAY 30 2016

NOTE:  "FAIR" INDICATES FEW OR NO CLOUDS BELOW 12,000 FEET
WITH NO SIGNIFICANT WEATHER AND/OR OBSTRUCTIONS TO VISIBILITY.

WYZ001-310500-
YELLOWSTONE NATIONAL PARK

CITY           SKY/WX    TMP DP  RH WIND       PRES   REMARKS
LK YELLOWSTONE   N/A     43  19  38 CALM      30.25R
W YELLOWSTONE  NOT AVBL

$$
WYZ002>013-054>058-071-098>099-310500-
NORTHERN WYOMING

CITY           SKY/WX    TMP DP  RH WIND       PRES   REMARKS
JACKSON        CLOUDY    48  37  66 CALM      30.16R
CODY           MOCLDY    50  36  57 NW6       30.15R
GREYBULL       FAIR      56  34  43 NW14      30.08R
WORLAND        MOCLDY    57  37  47 NW9       30.10R
SHERIDAN       FAIR      46  41  82 NW7       30.14R
BUFFALO        MOCLDY    48  42  80 N3        30.15R
GILLETTE       MOCLDY    45  43  93 NW6       30.12R
HULETT         FAIR      48  43  81 SW6       30.12R
NEWCASTLE      FAIR      50  36  57 NW18G26   30.07R

$$
WYZ014>020-022>026-101>103-310500-
CENTRAL WYOMING

CITY           SKY/WX    TMP DP  RH WIND       PRES   REMARKS
BIG PINEY      FAIR      45  30  55 N12       30.18R
PINEDALE       FAIR      46  30  53 W10       30.18R
DUBOIS         MOCLDY    45  34  65 NW3       30.18R
LANDER         MOCLDY    54  38  54 NW3       30.14R
RIVERTON       MOCLDY    53  36  52 NE12      30.13R
CASPER         CLOUDY    50  37  61 NE14G20   30.17R
DOUGLAS          N/A    N/A N/A N/A MISG      30.15R

$$
WYZ021-027>030-104>119-310500-
SOUTHERN WYOMING

CITY           SKY/WX    TMP DP  RH WIND       PRES   REMARKS
EVANSTON       FAIR      53  38  56 CALM      30.19R
KEMMERER         N/A     46  30  53 N13       30.20R
FORT BRIDGER   CLEAR     52  34  50 N7        30.21R
ROCK SPRINGS   FAIR      55  29  36 W12       30.16R
DIXON          FAIR      53  29  40 CALM      30.15R
RAWLINS        FAIR      48  40  73 N10       30.13R
SARATOGA       FAIR      50  30  46 W12       30.13R
LARAMIE        FAIR      51  29  42 W14       30.10R
CHEYENNE       MOCLDY    56  44  64 NE9       30.10R
TORRINGTON     FAIR      53  47  79 N23G31    30.04R
PINE BLUFFS    CLOUDY    52  48  87 CALM      30.06R

$$




USA.gov is the U.S. government's official web portal to all federal, state and local government web resources and services.